| time (UTC) | temp F | wind direction | speed knots | gust knots | rain 1hr in | rain 24hr in | rain mn in | humidity % | barometer mb |
| 20260507155047 | 54 | 0.0 | 0.0 | 0.00 | 0.37 | 0.37 | 71 | 1012.0 | |
| 20260507154556 | 54 | 0.0 | 0.0 | 0.00 | 0.37 | 0.37 | 73 | 1012.0 | |
| 20260507154048 | 54 | 0.0 | 0.0 | 0.00 | 0.37 | 0.37 | 71 | 1012.0 | |
| 20260507153547 | 54 | 0.0 | 0.0 | 0.00 | 0.37 | 0.37 | 71 | 1012.0 | |
| 20260507153102 | 54 | 0.0 | 0.0 | 0.00 | 0.37 | 0.37 | 69 | 1012.0 | |
| 20260507152547 | 54 | 0.0 | 0.0 | 0.00 | 0.37 | 0.37 | 69 | 1012.0 | |
| 20260507152048 | 54 | 0.0 | 0.0 | 0.00 | 0.37 | 0.37 | 69 | 1012.2 | |
| 20260507151555 | 54 | 0.0 | 0.0 | 0.00 | 0.37 | 0.37 | 71 | 1012.1 | |
| 20260507151049 | 54 | 0.0 | 0.0 | 0.00 | 0.37 | 0.37 | 72 | 1012.1 | |
| 20260507150548 | 54 | 0.0 | 0.0 | 0.00 | 0.37 | 0.37 | 71 | 1012.0 | |
| 20260507145609 | 54 | 0.0 | 0.0 | 0.00 | 0.46 | 0.37 | 70 | 1012.1 | |
| 20260507145047 | 54 | 0.0 | 0.0 | 0.00 | 0.46 | 0.37 | 69 | 1012.3 | |
| 20260507144557 | 54 | 0.0 | 0.0 | 0.00 | 0.46 | 0.37 | 71 | 1012.4 | |
| 20260507144049 | 54 | 0.0 | 0.0 | 0.00 | 0.46 | 0.37 | 72 | 1012.6 | |
| 20260507143547 | 54 | 0.0 | 0.0 | 0.00 | 0.46 | 0.37 | 70 | 1012.6 | |
| 20260507143056 | 54 | 0.0 | 0.0 | 0.00 | 0.46 | 0.37 | 72 | 1012.6 | |
| 20260507142547 | 54 | 0.0 | 0.0 | 0.00 | 0.46 | 0.37 | 73 | 1012.5 | |
| 20260507142048 | 54 | 0.0 | 0.0 | 0.00 | 0.46 | 0.37 | 73 | 1012.7 | |
| 20260507141559 | 53 | 0.0 | 0.0 | 0.00 | 0.46 | 0.37 | 71 | 1012.7 | |
| 20260507141049 | 53 | 0.0 | 0.0 | 0.01 | 0.46 | 0.37 | 71 | 1012.8 | |
| 20260507140548 | 54 | 0.0 | 0.0 | 0.01 | 0.46 | 0.37 | 70 | 1012.8 | |
| 20260507140108 | 53 | 0.0 | 0.0 | 0.01 | 0.46 | 0.37 | 74 | 1012.9 | |
| 20260507135548 | 53 | 0.0 | 0.0 | 0.01 | 0.51 | 0.37 | 74 | 1012.9 | |
| 20260507135049 | 53 | 0.0 | 0.0 | 0.01 | 0.51 | 0.37 | 74 | 1012.8 | |
| 20260507134601 | 53 | 0.0 | 0.0 | 0.01 | 0.51 | 0.37 | 76 | 1012.8 | |
| 20260507134048 | 53 | 0.0 | 0.0 | 0.01 | 0.51 | 0.37 | 79 | 1012.8 | |
| 20260507133550 | 53 | 0.0 | 0.0 | 0.01 | 0.51 | 0.37 | 79 | 1012.9 | |
| 20260507133104 | 53 | 0.0 | 0.0 | 0.01 | 0.51 | 0.37 | 79 | 1013.0 | |
| 20260507132547 | 53 | 0.0 | 0.0 | 0.01 | 0.51 | 0.37 | 80 | 1013.0 | |
| 20260507132048 | 53 | 0.0 | 0.0 | 0.01 | 0.51 | 0.37 | 81 | 1012.8 | |
| 20260507131557 | 53 | 0.0 | 0.0 | 0.01 | 0.51 | 0.37 | 82 | 1012.8 | |
| 20260507131048 | 53 | 0.0 | 0.0 | 0.00 | 0.50 | 0.36 | 83 | 1012.8 | |
| 20260507130548 | 53 | 0.0 | 0.0 | 0.00 | 0.50 | 0.36 | 85 | 1012.7 | |
| 20260507130105 | 53 | 0.0 | 0.0 | 0.00 | 0.50 | 0.36 | 85 | 1012.9 | |
| 20260507125549 | 53 | 0.0 | 0.0 | 0.00 | 0.51 | 0.36 | 86 | 1012.8 | |
| 20260507125047 | 53 | 0.0 | 0.0 | 0.00 | 0.51 | 0.36 | 88 | 1012.9 | |
| 20260507124629 | 53 | 0.0 | 0.0 | 0.00 | 0.51 | 0.36 | 89 | 1012.9 | |
| 20260507124048 | 53 | 0.0 | 0.0 | 0.00 | 0.51 | 0.36 | 90 | 1012.9 | |
| 20260507123548 | 54 | 0.0 | 0.0 | 0.00 | 0.51 | 0.36 | 91 | 1012.7 | |
| 20260507123053 | 54 | 0.0 | 0.0 | 0.00 | 0.51 | 0.36 | 92 | 1012.3 | |
| 20260507122549 | 54 | 0.0 | 0.0 | 0.00 | 0.51 | 0.36 | 92 | 1012.6 | |
| 20260507122048 | 54 | 0.0 | 0.0 | 0.00 | 0.51 | 0.36 | 92 | 1012.7 | |
| 20260507121557 | 54 | 0.0 | 0.0 | 0.00 | 0.51 | 0.36 | 93 | 1012.7 | |
| 20260507121050 | 54 | 0.0 | 0.0 | 0.00 | 0.51 | 0.36 | 93 | 1012.7 | |
| 20260507120548 | 54 | 0.0 | 0.0 | 0.00 | 0.51 | 0.36 | 93 | 1012.6 | |
| 20260507120055 | 54 | 0.0 | 0.0 | 0.00 | 0.51 | 0.36 | 93 | 1012.4 | |
| 20260507115552 | 54 | 0.0 | 0.0 | 0.00 | 0.51 | 0.36 | 92 | 1012.3 | |
| 20260507115047 | 54 | 0.0 | 0.0 | 0.00 | 0.51 | 0.36 | 92 | 1012.4 | |
| 20260507114612 | 54 | 0.0 | 0.0 | 0.00 | 0.51 | 0.36 | 93 | 1012.4 | |
| 20260507114048 | 54 | 0.0 | 0.0 | 0.00 | 0.51 | 0.36 | 92 | 1012.4 | |
| 20260507113547 | 54 | 0.0 | 0.0 | 0.00 | 0.51 | 0.36 | 92 | 1012.5 | |
| 20260507113112 | 54 | 0.0 | 0.0 | 0.00 | 0.51 | 0.36 | 92 | 1012.4 | |
| 20260507112551 | 54 | 0.0 | 0.0 | 0.00 | 0.51 | 0.36 | 92 | 1012.2 | |
| 20260507112049 | 54 | 0.0 | 0.0 | 0.00 | 0.51 | 0.36 | 92 | 1011.8 | |
| 20260507111555 | 54 | 0.0 | 0.0 | 0.00 | 0.51 | 0.36 | 92 | 1012.0 | |
| 20260507111049 | 53 | 0.0 | 0.0 | 0.00 | 0.51 | 0.36 | 92 | 1012.2 | |
| 20260507110547 | 53 | 0.0 | 0.0 | 0.00 | 0.51 | 0.36 | 92 | 1012.2 | |
| 20260507110054 | 53 | 0.0 | 0.0 | 0.00 | 0.51 | 0.36 | 92 | 1012.1 | |
| 20260507105550 | 53 | 0.0 | 0.0 | 0.00 | 0.51 | 0.36 | 92 | 1012.0 | |
| 20260507105048 | 53 | 0.0 | 0.0 | 0.00 | 0.51 | 0.36 | 92 | 1012.0 | |
| 20260507104558 | 53 | 0.0 | 0.0 | 0.00 | 0.51 | 0.36 | 92 | 1012.2 | |
| 20260507104050 | 53 | 0.0 | 0.0 | 0.00 | 0.51 | 0.36 | 92 | 1012.0 | |
| 20260507103547 | 53 | 0.0 | 0.0 | 0.00 | 0.51 | 0.36 | 92 | 1012.0 | |
| 20260507103057 | 53 | 0.0 | 0.0 | 0.00 | 0.51 | 0.36 | 92 | 1011.9 | |
| 20260507102548 | 53 | 0.0 | 0.0 | 0.00 | 0.51 | 0.36 | 92 | 1011.8 | |
| 20260507102059 | 54 | 0.0 | 0.0 | 0.00 | 0.51 | 0.36 | 92 | 1011.7 | |
| 20260507101558 | 54 | 0.0 | 0.0 | 0.00 | 0.51 | 0.36 | 92 | 1011.7 | |
| 20260507101048 | 54 | 0.0 | 0.0 | 0.00 | 0.51 | 0.36 | 92 | 1011.6 | |
| 20260507100546 | 54 | 0.0 | 0.0 | 0.00 | 0.51 | 0.36 | 92 | 1011.6 | |
| 20260507100056 | 54 | 0.0 | 0.0 | 0.00 | 0.51 | 0.36 | 92 | 1011.7 | |
| 20260507095548 | 54 | 0.0 | 0.0 | 0.00 | 0.51 | 0.36 | 92 | 1011.6 | |
| 20260507095048 | 54 | 0.0 | 0.0 | 0.00 | 0.51 | 0.36 | 92 | 1011.6 | |
| 20260507094553 | 54 | 0.0 | 0.0 | 0.00 | 0.51 | 0.36 | 92 | 1011.5 | |
| 20260507094051 | 54 | 0.0 | 0.0 | 0.00 | 0.51 | 0.36 | 92 | 1011.5 | |
| 20260507093550 | 54 | 0.0 | 0.0 | 0.00 | 0.51 | 0.36 | 92 | 1011.6 | |
| 20260507093056 | 54 | 0.0 | 0.0 | 0.00 | 0.51 | 0.36 | 92 | 1011.7 | |
| 20260507092547 | 54 | 0.0 | 0.0 | 0.00 | 0.51 | 0.36 | 92 | 1011.8 | |
| 20260507092053 | 54 | 0.0 | 0.0 | 0.00 | 0.51 | 0.36 | 92 | 1011.5 | |
| 20260507091600 | 54 | 0.0 | 0.0 | 0.00 | 0.51 | 0.36 | 92 | 1011.6 | |
| 20260507091048 | 54 | 0.0 | 0.0 | 0.00 | 0.51 | 0.36 | 92 | 1011.6 | |
| 20260507090548 | 54 | 0.0 | 0.0 | 0.00 | 0.51 | 0.36 | 92 | 1011.4 | |
| 20260507090058 | 54 | 0.0 | 0.0 | 0.00 | 0.51 | 0.36 | 92 | 1011.3 | |
| 20260507085548 | 54 | 0.0 | 0.0 | 0.00 | 0.51 | 0.36 | 92 | 1011.3 | |
| 20260507085048 | 54 | 0.0 | 0.0 | 0.00 | 0.51 | 0.36 | 92 | 1011.2 | |
| 20260507084552 | 54 | 0.0 | 0.0 | 0.00 | 0.51 | 0.36 | 92 | 1011.3 | |
| 20260507084048 | 54 | 0.0 | 0.0 | 0.00 | 0.51 | 0.36 | 92 | 1011.3 | |
| 20260507083549 | 54 | 0.0 | 0.0 | 0.00 | 0.51 | 0.36 | 92 | 1011.4 | |
| 20260507083053 | 54 | 0.0 | 0.0 | 0.00 | 0.51 | 0.36 | 91 | 1011.3 | |
| 20260507082547 | 54 | 0.0 | 0.0 | 0.00 | 0.51 | 0.36 | 91 | 1011.3 | |
| 20260507082046 | 54 | 0.0 | 0.0 | 0.00 | 0.51 | 0.36 | 91 | 1011.5 | |
| 20260507081555 | 54 | 0.0 | 0.0 | 0.00 | 0.51 | 0.36 | 91 | 1011.3 | |
| 20260507081047 | 54 | 0.0 | 0.0 | 0.00 | 0.51 | 0.36 | 91 | 1011.4 | |
| 20260507080547 | 54 | 0.0 | 0.0 | 0.00 | 0.51 | 0.36 | 91 | 1011.5 | |
| 20260507080056 | 54 | 0.0 | 0.0 | 0.00 | 0.51 | 0.36 | 91 | 1011.3 | |
| 20260507075548 | 54 | 0.0 | 0.0 | 0.00 | 0.51 | 0.36 | 91 | 1010.9 | |
| 20260507075048 | 54 | 0.0 | 0.0 | 0.00 | 0.51 | 0.36 | 91 | 1010.9 | |
| 20260507074606 | 54 | 0.0 | 0.0 | 0.00 | 0.51 | 0.36 | 91 | 1010.9 | |
| 20260507074047 | 54 | 0.0 | 0.0 | 0.00 | 0.51 | 0.36 | 91 | 1010.7 | |
| 20260507073551 | 55 | 0.0 | 0.0 | 0.00 | 0.51 | 0.36 | 91 | 1010.8 | |
| 20260507073054 | 55 | 0.0 | 0.0 | 0.00 | 0.51 | 0.36 | 91 | 1010.8 | |
| 20260507072549 | 55 | 0.0 | 0.0 | 0.00 | 0.51 | 0.36 | 91 | 1010.8 | |
| 20260507072109 | 55 | 0.0 | 0.0 | 0.00 | 0.51 | 0.36 | 91 | 1010.6 | |
| 20260507071554 | 55 | 0.0 | 0.0 | 0.00 | 0.51 | 0.36 | 91 | 1010.6 | |
| 20260507071048 | 55 | 0.0 | 0.0 | 0.00 | 0.51 | 0.36 | 91 | 1010.7 | |
| 20260507070549 | 55 | 0.0 | 0.0 | 0.00 | 0.51 | 0.36 | 91 | 1010.8 | |
| 20260507070115 | 55 | 0.0 | 0.0 | 0.00 | 0.51 | 0.36 | 91 | 1010.8 | |
| 20260507065545 | 55 | 0.0 | 0.0 | 0.00 | 0.51 | 0.36 | 91 | 1011.0 | |
| 20260507065045 | 55 | 0.0 | 0.0 | 0.00 | 0.51 | 0.36 | 91 | 1011.0 | |
| 20260507064602 | 55 | 0.0 | 0.0 | 0.00 | 0.51 | 0.36 | 91 | 1010.8 | |
| 20260507064048 | 55 | 0.0 | 0.0 | 0.00 | 0.51 | 0.36 | 91 | 1010.6 | |
| 20260507063548 | 55 | 0.0 | 0.0 | 0.00 | 0.51 | 0.36 | 91 | 1010.7 | |
| 20260507063058 | 55 | 0.0 | 0.0 | 0.01 | 0.51 | 0.36 | 90 | 1010.8 | |
| 20260507062548 | 55 | 0.0 | 0.0 | 0.01 | 0.51 | 0.36 | 90 | 1011.0 | |
| 20260507062048 | 56 | 0.0 | 0.0 | 0.02 | 0.51 | 0.36 | 90 | 1010.8 | |
| 20260507061557 | 56 | 0.0 | 0.0 | 0.03 | 0.51 | 0.36 | 90 | 1010.9 | |
| 20260507061050 | 56 | 0.0 | 0.0 | 0.05 | 0.51 | 0.36 | 90 | 1010.9 | |
| 20260507060550 | 56 | 0.0 | 0.0 | 0.05 | 0.51 | 0.36 | 90 | 1010.8 | |
| 20260507060056 | 57 | 0.0 | 0.0 | 0.05 | 0.51 | 0.36 | 90 | 1010.7 | |
| 20260507055548 | 57 | 0.0 | 0.0 | 0.05 | 0.51 | 0.36 | 90 | 1010.6 | |
| 20260507055049 | 57 | 0.0 | 0.0 | 0.06 | 0.51 | 0.36 | 90 | 1010.4 | |
| 20260507054554 | 57 | 0.0 | 0.0 | 0.06 | 0.51 | 0.36 | 90 | 1010.0 | |
| 20260507054100 | 57 | 0.0 | 0.0 | 0.06 | 0.51 | 0.36 | 90 | 1010.0 | |
| 20260507053548 | 58 | 0.0 | 0.0 | 0.07 | 0.51 | 0.36 | 89 | 1009.8 | |
| 20260507053049 | 58 | 0.0 | 0.0 | 0.06 | 0.50 | 0.35 | 89 | 1010.5 | |
| 20260507052549 | 58 | 0.0 | 0.0 | 0.08 | 0.50 | 0.35 | 89 | 1010.2 | |
| 20260507052046 | 58 | 0.0 | 0.0 | 0.09 | 0.49 | 0.34 | 89 | 1010.2 | |
| 20260507051557 | 58 | 0.0 | 0.0 | 0.12 | 0.48 | 0.33 | 89 | 1010.7 | |
| 20260507051048 | 59 | 0.0 | 0.0 | 0.19 | 0.46 | 0.31 | 89 | 1011.0 | |
| 20260507050548 | 59 | 0.0 | 0.0 | 0.29 | 0.46 | 0.31 | 88 | 1010.8 | |
| 20260507050056 | 59 | 0.0 | 0.0 | 0.31 | 0.46 | 0.31 | 88 | 1010.9 | |
| 20260507045550 | 59 | 0.0 | 0.0 | 0.31 | 0.46 | 0.31 | 88 | 1010.8 | |
| 20260507045046 | 60 | 0.0 | 0.0 | 0.30 | 0.45 | 0.30 | 88 | 1010.5 | |
| 20260507044612 | 60 | 0.0 | 0.0 | 0.30 | 0.45 | 0.30 | 87 | 1010.4 | |
| 20260507044048 | 60 | 0.0 | 0.0 | 0.30 | 0.45 | 0.30 | 87 | 1010.6 | |
| 20260507043547 | 61 | 0.0 | 0.0 | 0.29 | 0.44 | 0.29 | 87 | 1010.7 | |
| 20260507043053 | 61 | 0.0 | 0.0 | 0.28 | 0.43 | 0.28 | 86 | 1010.8 | |
| 20260507042548 | 61 | 0.0 | 0.0 | 0.27 | 0.42 | 0.27 | 86 | 1011.1 | |
| 20260507042051 | 62 | 0.0 | 0.0 | 0.25 | 0.40 | 0.25 | 85 | 1011.1 | |
| 20260507041642 | 62 | 0.0 | 0.0 | 0.20 | 0.35 | 0.20 | 85 | 1011.1 | |
| 20260507041046 | 63 | 0.0 | 0.0 | 0.11 | 0.26 | 0.11 | 84 | 1010.8 | |
| 20260507040548 | 63 | 0.0 | 0.0 | 0.02 | 0.17 | 0.02 | 84 | 1010.9 | |
| 20260507035548 | 64 | 0.0 | 0.0 | 0.00 | 0.15 | 0.15 | 82 | 1009.6 | |
| 20260507035048 | 64 | 0.0 | 0.0 | 0.00 | 0.15 | 0.15 | 82 | 1009.9 | |
| 20260507034557 | 64 | 0.0 | 0.0 | 0.00 | 0.15 | 0.15 | 82 | 1010.0 | |
| 20260507034048 | 64 | 0.0 | 0.0 | 0.00 | 0.15 | 0.15 | 82 | 1010.0 | |
| 20260507033548 | 64 | 0.0 | 0.0 | 0.00 | 0.15 | 0.15 | 82 | 1009.9 | |
| 20260507033056 | 64 | 0.0 | 0.0 | 0.00 | 0.15 | 0.15 | 82 | 1009.9 | |
| 20260507032546 | 64 | 0.0 | 0.0 | 0.00 | 0.15 | 0.15 | 82 | 1009.9 | |
| 20260507032048 | 64 | 0.0 | 0.0 | 0.00 | 0.15 | 0.15 | 83 | 1010.1 | |
| 20260507031604 | 64 | 0.0 | 0.0 | 0.00 | 0.15 | 0.15 | 84 | 1010.1 | |
| 20260507031048 | 64 | 0.0 | 0.0 | 0.00 | 0.15 | 0.15 | 84 | 1010.2 | |
| 20260507030558 | 64 | 0.0 | 0.0 | 0.00 | 0.15 | 0.15 | 85 | 1010.2 | |
| 20260507030057 | 64 | 0.0 | 0.0 | 0.00 | 0.15 | 0.15 | 86 | 1009.9 | |
| 20260507025549 | 65 | 0.0 | 0.0 | 0.00 | 0.15 | 0.15 | 87 | 1009.4 | |
| 20260507025049 | 65 | 0.0 | 0.0 | 0.00 | 0.15 | 0.15 | 88 | 1009.5 | |
| 20260507024556 | 65 | 0.0 | 0.0 | 0.00 | 0.15 | 0.15 | 88 | 1009.7 | |
| 20260507024047 | 65 | 0.0 | 0.0 | 0.00 | 0.15 | 0.15 | 88 | 1009.9 | |
| 20260507023548 | 65 | 0.0 | 0.0 | 0.00 | 0.15 | 0.15 | 88 | 1009.9 | |
| 20260507023055 | 65 | 0.0 | 0.0 | 0.00 | 0.15 | 0.15 | 87 | 1010.0 | |
| 20260507022548 | 65 | 0.0 | 0.0 | 0.00 | 0.15 | 0.15 | 87 | 1009.6 | |
| 20260507022050 | 65 | 0.0 | 0.0 | 0.00 | 0.15 | 0.15 | 87 | 1009.6 | |
| 20260507021553 | 65 | 0.0 | 0.0 | 0.00 | 0.15 | 0.15 | 86 | 1009.5 | |
| 20260507021048 | 65 | 0.0 | 0.0 | 0.00 | 0.15 | 0.15 | 86 | 1009.3 | |
| 20260507020548 | 65 | 0.0 | 0.0 | 0.00 | 0.15 | 0.15 | 86 | 1009.0 | |
| 20260507020055 | 65 | 0.0 | 0.0 | 0.00 | 0.15 | 0.15 | 86 | 1008.9 | |
| 20260507015549 | 65 | 0.0 | 0.0 | 0.00 | 0.15 | 0.15 | 86 | 1009.1 | |
| 20260507015052 | 65 | 0.0 | 0.0 | 0.00 | 0.15 | 0.15 | 86 | 1009.3 | |
| 20260507014602 | 65 | 0.0 | 0.0 | 0.00 | 0.15 | 0.15 | 86 | 1009.3 | |
| 20260507014051 | 65 | 0.0 | 0.0 | 0.00 | 0.15 | 0.15 | 85 | 1009.4 | |
| 20260507013547 | 66 | 0.0 | 0.0 | 0.00 | 0.15 | 0.15 | 85 | 1009.5 | |
| 20260507013111 | 66 | 0.0 | 0.0 | 0.00 | 0.15 | 0.15 | 85 | 1009.5 | |
| 20260507012547 | 66 | 0.0 | 0.0 | 0.00 | 0.15 | 0.15 | 85 | 1009.4 | |
| 20260507012047 | 66 | 0.0 | 0.0 | 0.00 | 0.15 | 0.15 | 84 | 1009.6 | |
| 20260507011552 | 66 | 0.0 | 0.0 | 0.00 | 0.15 | 0.15 | 84 | 1009.6 | |
| 20260507011047 | 66 | 0.0 | 0.0 | 0.00 | 0.15 | 0.15 | 83 | 1009.6 | |
| 20260507010547 | 66 | 0.0 | 0.0 | 0.00 | 0.15 | 0.15 | 83 | 1009.5 | |
| 20260507005548 | 67 | 0.0 | 0.0 | 0.00 | 0.15 | 0.15 | 82 | 1009.5 | |
| 20260507005046 | 67 | 0.0 | 0.0 | 0.00 | 0.15 | 0.15 | 82 | 1009.6 | |
| 20260507004551 | 67 | 0.0 | 0.0 | 0.00 | 0.15 | 0.15 | 82 | 1009.5 | |
| 20260507004050 | 67 | 0.0 | 0.0 | 0.00 | 0.15 | 0.15 | 81 | 1009.4 | |
| 20260507003546 | 67 | 0.0 | 0.0 | 0.00 | 0.15 | 0.15 | 81 | 1009.3 | |
| 20260507003052 | 67 | 0.0 | 0.0 | 0.00 | 0.15 | 0.15 | 81 | 1009.1 | |
| 20260507002548 | 68 | 0.0 | 0.0 | 0.00 | 0.15 | 0.15 | 81 | 1009.1 | |
| 20260507002047 | 68 | 0.0 | 0.0 | 0.00 | 0.15 | 0.15 | 81 | 1009.1 | |
| 20260507001557 | 68 | 0.0 | 0.0 | 0.00 | 0.15 | 0.15 | 80 | 1009.0 | |
| 20260507001056 | 68 | 0.0 | 0.0 | 0.00 | 0.15 | 0.15 | 80 | 1009.2 | |
| 20260507000546 | 68 | 0.0 | 0.0 | 0.00 | 0.15 | 0.15 | 80 | 1009.0 | |
| 20260507000055 | 68 | 0.0 | 0.0 | 0.00 | 0.15 | 0.15 | 80 | 1009.0 | |
| 20260506235546 | 69 | 0.0 | 0.0 | 0.00 | 0.15 | 0.15 | 80 | 1009.0 | |
| 20260506235047 | 69 | 0.0 | 0.0 | 0.00 | 0.15 | 0.15 | 79 | 1008.7 | |
| 20260506234614 | 69 | 0.0 | 0.0 | 0.00 | 0.15 | 0.15 | 79 | 1008.6 | |
| 20260506234047 | 69 | 0.0 | 0.0 | 0.00 | 0.15 | 0.15 | 79 | 1008.7 | |
| 20260506233549 | 69 | 0.0 | 0.0 | 0.00 | 0.15 | 0.15 | 79 | 1008.6 | |
| 20260506233104 | 69 | 0.0 | 0.0 | 0.00 | 0.15 | 0.15 | 79 | 1008.5 | |
| 20260506232546 | 69 | 0.0 | 0.0 | 0.00 | 0.15 | 0.15 | 79 | 1008.5 | |
| 20260506232050 | 69 | 0.0 | 0.0 | 0.00 | 0.15 | 0.15 | 78 | 1008.5 | |
| 20260506231600 | 69 | 0.0 | 0.0 | 0.00 | 0.15 | 0.15 | 78 | 1008.5 | |
| 20260506231048 | 69 | 0.0 | 0.0 | 0.00 | 0.15 | 0.15 | 78 | 1008.5 | |
| 20260506230548 | 69 | 0.0 | 0.0 | 0.00 | 0.15 | 0.15 | 78 | 1008.7 | |
| 20260506225550 | 69 | 0.0 | 0.0 | 0.00 | 0.15 | 0.15 | 78 | 1008.4 | |
| 20260506225048 | 69 | 0.0 | 0.0 | 0.00 | 0.15 | 0.15 | 78 | 1008.4 | |
| 20260506224553 | 69 | 0.0 | 0.0 | 0.00 | 0.15 | 0.15 | 78 | 1008.5 | |
| 20260506224051 | 70 | 0.0 | 0.0 | 0.00 | 0.15 | 0.15 | 79 | 1008.3 | |
| 20260506223545 | 70 | 0.0 | 0.0 | 0.00 | 0.15 | 0.15 | 79 | 1008.3 | |
| 20260506223055 | 69 | 0.0 | 0.0 | 0.00 | 0.15 | 0.15 | 80 | 1008.3 | |
| 20260506222623 | 69 | 0.0 | 0.0 | 0.00 | 0.15 | 0.15 | 80 | 1008.4 | |
| 20260506222049 | 69 | 0.0 | 0.0 | 0.00 | 0.15 | 0.15 | 81 | 1008.4 | |
| 20260506221601 | 69 | 0.0 | 0.0 | 0.00 | 0.15 | 0.15 | 80 | 1008.4 | |
| 20260506221048 | 70 | 0.0 | 0.0 | 0.00 | 0.15 | 0.15 | 80 | 1008.3 | |
| 20260506220548 | 69 | 0.0 | 0.0 | 0.00 | 0.15 | 0.15 | 81 | 1008.2 | |
| 20260506220100 | 69 | 0.0 | 0.0 | 0.00 | 0.15 | 0.15 | 80 | 1008.2 | |
| 20260506215548 | 69 | 0.0 | 0.0 | 0.00 | 0.15 | 0.15 | 81 | 1008.3 | |
| 20260506215051 | 69 | 0.0 | 0.0 | 0.00 | 0.15 | 0.15 | 81 | 1008.3 | |
| 20260506214600 | 69 | 0.0 | 0.0 | 0.00 | 0.15 | 0.15 | 80 | 1008.4 | |
| 20260506214048 | 69 | 0.0 | 0.0 | 0.00 | 0.15 | 0.15 | 79 | 1008.3 | |
| 20260506213548 | 69 | 0.0 | 0.0 | 0.00 | 0.15 | 0.15 | 80 | 1008.3 | |
| 20260506213105 | 69 | 0.0 | 0.0 | 0.00 | 0.15 | 0.15 | 80 | 1008.4 | |
| 20260506212549 | 68 | 0.0 | 0.0 | 0.00 | 0.15 | 0.15 | 79 | 1008.5 | |
| 20260506212049 | 69 | 0.0 | 0.0 | 0.00 | 0.15 | 0.15 | 82 | 1008.5 | |
| 20260506211609 | 69 | 0.0 | 0.0 | 0.00 | 0.15 | 0.15 | 80 | 1008.3 | |
| 20260506211050 | 68 | 0.0 | 0.0 | 0.00 | 0.15 | 0.15 | 80 | 1008.2 | |
| 20260506210605 | 68 | 0.0 | 0.0 | 0.00 | 0.15 | 0.15 | 80 | 1008.2 | |
| 20260506210056 | 68 | 0.0 | 0.0 | 0.00 | 0.15 | 0.15 | 80 | 1008.1 | |
| 20260506205549 | 68 | 0.0 | 0.0 | 0.00 | 0.15 | 0.15 | 81 | 1008.0 | |
| 20260506205048 | 68 | 0.0 | 0.0 | 0.00 | 0.15 | 0.15 | 81 | 1008.1 | |
| 20260506204558 | 68 | 0.0 | 0.0 | 0.00 | 0.15 | 0.15 | 80 | 1008.0 | |
| 20260506204048 | 68 | 0.0 | 0.0 | 0.00 | 0.15 | 0.15 | 80 | 1008.2 | |
| 20260506203601 | 68 | 0.0 | 0.0 | 0.00 | 0.15 | 0.15 | 81 | 1008.1 | |
| 20260506203055 | 68 | 0.0 | 0.0 | 0.00 | 0.15 | 0.15 | 81 | 1008.2 | |
| 20260506202549 | 68 | 0.0 | 0.0 | 0.00 | 0.15 | 0.15 | 82 | 1008.1 | |
| 20260506202048 | 67 | 0.0 | 0.0 | 0.00 | 0.15 | 0.15 | 81 | 1008.2 | |
| 20260506201553 | 68 | 0.0 | 0.0 | 0.00 | 0.15 | 0.15 | 82 | 1008.0 | |
| 20260506201047 | 68 | 0.0 | 0.0 | 0.00 | 0.15 | 0.15 | 83 | 1008.2 | |
| 20260506200604 | 68 | 0.0 | 0.0 | 0.00 | 0.15 | 0.15 | 81 | 1008.1 | |
| 20260506200055 | 68 | 0.0 | 0.0 | 0.00 | 0.15 | 0.15 | 83 | 1008.2 | |
| 20260506195548 | 67 | 0.0 | 0.0 | 0.00 | 0.15 | 0.15 | 82 | 1008.2 | |
| 20260506195048 | 67 | 0.0 | 0.0 | 0.00 | 0.15 | 0.15 | 81 | 1008.2 | |
| 20260506194554 | 67 | 0.0 | 0.0 | 0.00 | 0.15 | 0.15 | 82 | 1008.1 | |
| 20260506194048 | 67 | 0.0 | 0.0 | 0.00 | 0.15 | 0.15 | 82 | 1008.2 | |
| 20260506193548 | 67 | 0.0 | 0.0 | 0.00 | 0.15 | 0.15 | 83 | 1008.4 | |
| 20260506193054 | 66 | 0.0 | 0.0 | 0.00 | 0.15 | 0.15 | 84 | 1008.5 | |
| 20260506192548 | 66 | 0.0 | 0.0 | 0.00 | 0.15 | 0.15 | 84 | 1008.5 | |
| 20260506192048 | 66 | 0.0 | 0.0 | 0.00 | 0.15 | 0.15 | 84 | 1008.6 | |
| 20260506191557 | 65 | 0.0 | 0.0 | 0.00 | 0.15 | 0.15 | 84 | 1008.5 | |
| 20260506191051 | 66 | 0.0 | 0.0 | 0.00 | 0.15 | 0.15 | 84 | 1008.6 | |
| 20260506190549 | 66 | 0.0 | 0.0 | 0.00 | 0.15 | 0.15 | 84 | 1008.8 | |
| 20260506190059 | 66 | 0.0 | 0.0 | 0.00 | 0.15 | 0.15 | 84 | 1009.0 | |
| 20260506185549 | 66 | 0.0 | 0.0 | 0.00 | 0.15 | 0.15 | 84 | 1008.9 | |
| 20260506185048 | 66 | 0.0 | 0.0 | 0.00 | 0.15 | 0.15 | 85 | 1008.9 | |
| 20260506184607 | 65 | 0.0 | 0.0 | 0.00 | 0.15 | 0.15 | 84 | 1009.2 | |
| 20260506184048 | 65 | 0.0 | 0.0 | 0.00 | 0.15 | 0.15 | 85 | 1009.2 | |
| 20260506183550 | 65 | 0.0 | 0.0 | 0.00 | 0.15 | 0.15 | 85 | 1009.1 | |
| 20260506183053 | 65 | 0.0 | 0.0 | 0.00 | 0.15 | 0.15 | 85 | 1009.3 | |
| 20260506182548 | 65 | 0.0 | 0.0 | 0.00 | 0.15 | 0.15 | 85 | 1009.0 | |
| 20260506182049 | 65 | 0.0 | 0.0 | 0.00 | 0.15 | 0.15 | 85 | 1008.9 | |
| 20260506181552 | 65 | 0.0 | 0.0 | 0.00 | 0.15 | 0.15 | 86 | 1009.0 | |
| 20260506181049 | 65 | 0.0 | 0.0 | 0.00 | 0.15 | 0.15 | 85 | 1009.1 | |
| 20260506180549 | 65 | 0.0 | 0.0 | 0.00 | 0.15 | 0.15 | 85 | 1009.0 | |
| 20260506180055 | 65 | 0.0 | 0.0 | 0.00 | 0.15 | 0.15 | 85 | 1009.2 | |
| 20260506175548 | 64 | 0.0 | 0.0 | 0.00 | 0.15 | 0.15 | 86 | 1009.0 | |
| 20260506175048 | 64 | 0.0 | 0.0 | 0.00 | 0.15 | 0.15 | 86 | 1009.5 | |
| 20260506174556 | 64 | 0.0 | 0.0 | 0.00 | 0.15 | 0.15 | 85 | 1009.4 | |
| 20260506174053 | 64 | 0.0 | 0.0 | 0.00 | 0.15 | 0.15 | 86 | 1009.4 | |
| 20260506173551 | 64 | 0.0 | 0.0 | 0.00 | 0.15 | 0.15 | 86 | 1009.3 | |
| 20260506173106 | 64 | 0.0 | 0.0 | 0.00 | 0.15 | 0.15 | 86 | 1009.4 | |
| 20260506172549 | 64 | 0.0 | 0.0 | 0.00 | 0.15 | 0.15 | 86 | 1009.4 | |
| 20260506172049 | 64 | 0.0 | 0.0 | 0.00 | 0.15 | 0.15 | 87 | 1009.6 | |
| 20260506171558 | 63 | 0.0 | 0.0 | 0.00 | 0.15 | 0.15 | 86 | 1009.5 | |
| 20260506171049 | 63 | 0.0 | 0.0 | 0.00 | 0.15 | 0.15 | 87 | 1009.5 | |
| 20260506170554 | 63 | 0.0 | 0.0 | 0.00 | 0.15 | 0.15 | 86 | 1009.6 | |
| 20260506170059 | 63 | 0.0 | 0.0 | 0.00 | 0.15 | 0.15 | 86 | 1009.9 | |
| 20260506165549 | 63 | 0.0 | 0.0 | 0.00 | 0.15 | 0.15 | 87 | 1009.7 | |
| 20260506165049 | 63 | 0.0 | 0.0 | 0.00 | 0.15 | 0.15 | 86 | 1009.8 | |
| 20260506164613 | 63 | 0.0 | 0.0 | 0.00 | 0.15 | 0.15 | 86 | 1009.7 | |
| 20260506164049 | 63 | 0.0 | 0.0 | 0.00 | 0.15 | 0.15 | 87 | 1009.9 | |
| 20260506163548 | 63 | 0.0 | 0.0 | 0.00 | 0.15 | 0.15 | 87 | 1009.9 | |
| 20260506163112 | 63 | 0.0 | 0.0 | 0.00 | 0.15 | 0.15 | 88 | 1009.8 | |
| 20260506162549 | 63 | 0.0 | 0.0 | 0.00 | 0.15 | 0.15 | 89 | 1009.8 | |
| 20260506162049 | 62 | 0.0 | 0.0 | 0.00 | 0.15 | 0.15 | 90 | 1009.8 | |
| 20260506161553 | 62 | 0.0 | 0.0 | 0.00 | 0.15 | 0.15 | 92 | 1009.9 | |
| 20260506161048 | 62 | 0.0 | 0.0 | 0.00 | 0.15 | 0.15 | 91 | 1009.9 | |
| 20260506160547 | 61 | 0.0 | 0.0 | 0.00 | 0.15 | 0.15 | 91 | 1009.9 | |
| 20260506160106 | 61 | 0.0 | 0.0 | 0.00 | 0.15 | 0.15 | 91 | 1010.0 | |
| 20260506155548 | 61 | 0.0 | 0.0 | 0.00 | 0.15 | 0.15 | 91 | 1010.0 |